SUD1A HECA-LGSK

Flight info

Callsign SUD1A
Flight time 1h 47m
Altitude 38000
Route CVO DCT NOZ DCT ANTAR UN133 KPC UN137 RIPLI UL995 KEA UN132 ROPOX UM749 SIGFO
Aircraft A320/M-SDFGHILORVWY/S

Departure

Time 2026-04-20 05:48
Airport Cairo International Airport (HECA)

Arrival

Time 2026-04-20 07:35
Airport Skiathos Island National Airport (LGSK)
Time Latitude Longitude Altitude Speed Heading
2026-04-20 05:21 30.13070 31.40575 375 ft 0 kts 132°
2026-04-20 05:38 30.13078 31.40565 374 ft 3 kts 135°
2026-04-20 05:38 30.13093 31.40550 374 ft 3 kts 146°
2026-04-20 05:39 30.13110 31.40539 374 ft 3 kts 172°
2026-04-20 05:39 30.13123 31.40539 374 ft 4 kts 227°
2026-04-20 05:41 30.13122 31.40536 374 ft 3 kts 235°
2026-04-20 05:41 30.13110 31.40468 374 ft 13 kts 258°
2026-04-20 05:41 30.13085 31.40337 374 ft 18 kts 269°
2026-04-20 05:42 30.13174 31.40221 374 ft 20 kts 317°
2026-04-20 05:42 30.13255 31.40133 374 ft 10 kts 317°
2026-04-20 05:42 30.13243 31.40052 374 ft 14 kts 227°
2026-04-20 05:42 30.13164 31.39948 374 ft 20 kts 229°
2026-04-20 05:43 30.13063 31.39813 374 ft 24 kts 228°
2026-04-20 05:43 30.12972 31.39693 374 ft 21 kts 229°
2026-04-20 05:43 30.12878 31.39566 374 ft 18 kts 229°
2026-04-20 05:43 30.12783 31.39438 374 ft 24 kts 230°
2026-04-20 05:44 30.12674 31.39290 374 ft 17 kts 229°
2026-04-20 05:44 30.12597 31.39190 374 ft 17 kts 230°
2026-04-20 05:44 30.12524 31.39087 374 ft 17 kts 226°
2026-04-20 05:44 30.12446 31.38987 374 ft 17 kts 228°
2026-04-20 05:45 30.12361 31.38879 374 ft 19 kts 228°
2026-04-20 05:45 30.12274 31.38756 374 ft 21 kts 230°
2026-04-20 05:45 30.12176 31.38624 374 ft 22 kts 229°
2026-04-20 05:45 30.12080 31.38492 374 ft 20 kts 230°
2026-04-20 05:46 30.11997 31.38384 374 ft 18 kts 228°
2026-04-20 05:46 30.11912 31.38269 374 ft 20 kts 229°
2026-04-20 05:46 30.11860 31.38181 374 ft 10 kts 265°
2026-04-20 05:46 30.11886 31.38139 374 ft 10 kts 314°
2026-04-20 05:47 30.11946 31.38080 374 ft 12 kts 320°
2026-04-20 05:47 30.12022 31.38098 375 ft 15 kts 46°
2026-04-20 05:47 30.12221 31.38366 377 ft 81 kts 50°
2026-04-20 05:47 30.12737 31.39055 376 ft 142 kts 49°
2026-04-20 05:48 30.13485 31.40042 580 ft 171 kts 46°
2026-04-20 05:48 30.14256 31.41060 1300 ft 168 kts 35°
2026-04-20 05:48 30.15308 31.41493 1972 ft 164 kts 353°
2026-04-20 05:48 30.16439 31.41040 2369 ft 185 kts 329°
2026-04-20 05:49 30.17585 31.40199 2812 ft 205 kts 326°
2026-04-20 05:49 30.18829 31.39213 3267 ft 229 kts 325°
2026-04-20 05:49 30.20185 31.38114 3903 ft 245 kts 322°
2026-04-20 05:49 30.21380 31.36679 4782 ft 252 kts 309°
2026-04-20 05:50 30.22494 31.35097 5709 ft 255 kts 308°
2026-04-20 05:50 30.23619 31.33491 6642 ft 259 kts 308°
2026-04-20 05:50 30.24755 31.31865 7536 ft 261 kts 308°
2026-04-20 05:50 30.25900 31.30222 8450 ft 264 kts 307°
2026-04-20 05:51 30.27055 31.28560 9353 ft 266 kts 307°
2026-04-20 05:51 30.28224 31.26882 10197 ft 271 kts 307°
2026-04-20 05:51 30.29464 31.25109 10504 ft 295 kts 308°
2026-04-20 05:51 30.30803 31.23192 10766 ft 317 kts 308°
2026-04-20 05:52 30.32213 31.21169 11341 ft 327 kts 308°
2026-04-20 05:52 30.33651 31.19107 12078 ft 331 kts 307°
2026-04-20 05:52 30.35102 31.17021 12839 ft 335 kts 307°
2026-04-20 05:52 30.36571 31.14912 13597 ft 338 kts 307°
2026-04-20 05:53 30.38055 31.12776 14276 ft 342 kts 307°
2026-04-20 05:53 30.39550 31.10625 14954 ft 344 kts 307°
2026-04-20 05:53 30.41059 31.08458 15634 ft 347 kts 307°
2026-04-20 05:53 30.42558 31.06311 16307 ft 349 kts 307°
2026-04-20 05:54 30.44086 31.04115 16988 ft 351 kts 307°
2026-04-20 05:54 30.45620 31.01901 17665 ft 353 kts 307°
2026-04-20 05:54 30.47162 30.99670 18333 ft 356 kts 307°
2026-04-20 05:54 30.48719 30.97427 18911 ft 358 kts 307°
2026-04-20 05:55 30.50287 30.95171 19530 ft 360 kts 307°
2026-04-20 05:55 30.51860 30.92903 20130 ft 362 kts 307°
2026-04-20 05:55 30.53444 30.90621 20716 ft 364 kts 306°
2026-04-20 05:55 30.55035 30.88319 21290 ft 367 kts 306°
2026-04-20 05:56 30.56634 30.86001 21840 ft 369 kts 306°
2026-04-20 05:56 30.58245 30.83668 22382 ft 372 kts 306°
2026-04-20 05:56 30.59864 30.81318 22908 ft 374 kts 306°
2026-04-20 05:56 30.61495 30.78953 23424 ft 377 kts 306°
2026-04-20 05:57 30.63142 30.76574 23864 ft 379 kts 306°
2026-04-20 05:57 30.64794 30.74178 24271 ft 381 kts 306°
2026-04-20 05:57 30.66458 30.71766 24659 ft 384 kts 306°
2026-04-20 05:57 30.68131 30.69334 25042 ft 386 kts 306°
2026-04-20 05:58 30.69813 30.66892 25412 ft 388 kts 305°
2026-04-20 05:58 30.71504 30.64429 25783 ft 391 kts 305°
2026-04-20 05:58 30.73202 30.61953 26150 ft 393 kts 305°
2026-04-20 05:58 30.74910 30.59461 26511 ft 395 kts 305°
2026-04-20 05:59 30.76626 30.56953 26868 ft 397 kts 305°
2026-04-20 05:59 30.78351 30.54432 27218 ft 400 kts 305°
2026-04-20 05:59 30.80088 30.51897 27559 ft 402 kts 305°
2026-04-20 05:59 30.81835 30.49348 27883 ft 404 kts 305°
2026-04-20 06:00 30.83592 30.46787 28217 ft 406 kts 305°
2026-04-20 06:00 30.85360 30.44209 28524 ft 408 kts 305°
2026-04-20 06:00 30.87135 30.41620 28841 ft 410 kts 304°
2026-04-20 06:00 30.88913 30.39013 29157 ft 412 kts 304°
2026-04-20 06:01 30.90698 30.36396 29430 ft 414 kts 304°
2026-04-20 06:01 30.92492 30.33763 29695 ft 416 kts 304°
2026-04-20 06:01 30.94297 30.31119 29952 ft 418 kts 304°
2026-04-20 06:01 30.96110 30.28463 30180 ft 420 kts 304°
2026-04-20 06:02 30.97902 30.25836 30450 ft 419 kts 304°
2026-04-20 06:02 30.99735 30.23143 30748 ft 418 kts 304°
2026-04-20 06:02 31.01538 30.20486 31048 ft 417 kts 304°
2026-04-20 06:02 31.03336 30.17836 31346 ft 416 kts 304°
2026-04-20 06:03 31.05137 30.15194 31648 ft 415 kts 304°
2026-04-20 06:03 31.06907 30.12593 31945 ft 415 kts 304°
2026-04-20 06:03 31.08697 30.09964 32269 ft 414 kts 304°
2026-04-20 06:03 31.10484 30.07331 32555 ft 413 kts 304°
2026-04-20 06:04 31.12263 30.04702 32848 ft 413 kts 304°
2026-04-20 06:04 31.14040 30.02070 33155 ft 412 kts 304°
2026-04-20 06:04 31.15809 29.99446 33463 ft 411 kts 304°
2026-04-20 06:04 31.17637 29.96876 33762 ft 413 kts 309°
2026-04-20 06:05 31.19805 29.94645 34055 ft 419 kts 319°
2026-04-20 06:05 31.22308 29.92852 34312 ft 425 kts 326°
2026-04-20 06:05 31.24917 29.91235 34585 ft 424 kts 326°
2026-04-20 06:05 31.27523 29.89617 34816 ft 424 kts 326°
2026-04-20 06:06 31.30125 29.87995 35053 ft 424 kts 326°
2026-04-20 06:06 31.32722 29.86368 35289 ft 423 kts 325°
2026-04-20 06:06 31.35315 29.84741 35521 ft 423 kts 325°
2026-04-20 06:06 31.37901 29.83116 35748 ft 422 kts 325°
2026-04-20 06:07 31.40488 29.81491 35958 ft 422 kts 325°
2026-04-20 06:07 31.43077 29.79866 36148 ft 422 kts 325°
2026-04-20 06:07 31.45668 29.78239 36349 ft 422 kts 325°
2026-04-20 06:07 31.48252 29.76615 36552 ft 422 kts 325°
2026-04-20 06:08 31.50837 29.74993 36755 ft 421 kts 325°
2026-04-20 06:08 31.53419 29.73372 36948 ft 421 kts 325°
2026-04-20 06:08 31.55999 29.71750 37153 ft 421 kts 325°
2026-04-20 06:08 31.58575 29.70126 37342 ft 420 kts 325°
2026-04-20 06:09 31.61150 29.68502 37524 ft 420 kts 325°
2026-04-20 06:09 31.63722 29.66881 37704 ft 420 kts 325°
2026-04-20 06:09 31.66294 29.65260 37889 ft 419 kts 325°
2026-04-20 06:09 31.68862 29.63641 37997 ft 420 kts 325°
2026-04-20 06:10 31.74009 29.60394 38008 ft 420 kts 325°
2026-04-20 06:10 31.79149 29.57137 38011 ft 420 kts 325°
2026-04-20 06:11 31.84253 29.53898 38015 ft 420 kts 325°
2026-04-20 06:11 31.89399 29.50635 38015 ft 420 kts 326°
2026-04-20 06:12 31.94548 29.47370 38016 ft 421 kts 325°
2026-04-20 06:12 31.99698 29.44090 38023 ft 421 kts 325°
2026-04-20 06:13 32.04850 29.40805 38028 ft 421 kts 325°
2026-04-20 06:13 32.10009 29.37521 38029 ft 421 kts 326°
2026-04-20 06:14 32.15168 29.34235 38046 ft 422 kts 326°
2026-04-20 06:14 32.20329 29.30937 38038 ft 422 kts 326°
2026-04-20 06:15 32.25486 29.27638 38035 ft 422 kts 326°
2026-04-20 06:15 32.30639 29.24327 38039 ft 422 kts 326°
2026-04-20 06:16 32.35797 29.21020 38033 ft 422 kts 326°
2026-04-20 06:16 32.40952 29.17715 38031 ft 421 kts 326°
2026-04-20 06:17 32.46102 29.14399 38025 ft 421 kts 326°
2026-04-20 06:17 32.51253 29.11080 38030 ft 421 kts 326°
2026-04-20 06:18 32.56400 29.07750 38027 ft 421 kts 326°
2026-04-20 06:18 32.61549 29.04422 38028 ft 421 kts 326°
2026-04-20 06:19 32.66703 29.01099 38044 ft 422 kts 326°
2026-04-20 06:19 32.71853 28.97772 38040 ft 421 kts 326°
2026-04-20 06:20 32.76994 28.94430 38042 ft 421 kts 326°
2026-04-20 06:20 32.82095 28.91112 38035 ft 421 kts 326°
2026-04-20 06:21 32.87231 28.87772 38036 ft 421 kts 326°
2026-04-20 06:21 32.92372 28.84432 38030 ft 421 kts 326°
2026-04-20 06:22 32.97505 28.81089 38048 ft 421 kts 326°
2026-04-20 06:22 33.02674 28.77703 38007 ft 427 kts 326°
2026-04-20 06:23 33.07907 28.74283 38008 ft 431 kts 326°
2026-04-20 06:23 33.13178 28.70829 38003 ft 433 kts 326°
2026-04-20 06:24 33.18476 28.67360 38004 ft 435 kts 326°
2026-04-20 06:24 33.23796 28.63871 38038 ft 437 kts 326°
2026-04-20 06:25 33.29126 28.60369 38011 ft 437 kts 326°
2026-04-20 06:25 33.34454 28.56854 38013 ft 438 kts 326°
2026-04-20 06:26 33.39788 28.53337 38008 ft 438 kts 326°
2026-04-20 06:26 33.45121 28.49817 38014 ft 438 kts 326°
2026-04-20 06:27 33.50453 28.46294 38012 ft 438 kts 325°
2026-04-20 06:27 33.55790 28.42751 38039 ft 439 kts 325°
2026-04-20 06:28 33.61102 28.39240 38041 ft 439 kts 326°
2026-04-20 06:28 33.66454 28.35700 38046 ft 439 kts 325°
2026-04-20 06:29 33.71800 28.32137 38025 ft 439 kts 325°
2026-04-20 06:29 33.77122 28.28583 38011 ft 437 kts 325°
2026-04-20 06:30 33.82440 28.25041 38002 ft 436 kts 325°
2026-04-20 06:30 33.87733 28.21481 38007 ft 436 kts 325°
2026-04-20 06:31 33.93009 28.17894 38010 ft 436 kts 325°
2026-04-20 06:31 33.98293 28.14313 38012 ft 436 kts 325°
2026-04-20 06:32 34.03584 28.10738 38011 ft 436 kts 325°
2026-04-20 06:32 34.08875 28.07150 38051 ft 436 kts 325°
2026-04-20 06:33 34.14168 28.03547 38040 ft 437 kts 325°
2026-04-20 06:33 34.19465 27.99937 38038 ft 437 kts 325°
2026-04-20 06:34 34.24768 27.96323 38039 ft 438 kts 325°
2026-04-20 06:35 34.32725 27.90894 38038 ft 438 kts 325°
2026-04-20 06:35 34.37131 27.87880 38030 ft 437 kts 325°
2026-04-20 06:36 34.42417 27.84263 38025 ft 436 kts 325°
2026-04-20 06:36 34.47698 27.80644 38030 ft 437 kts 325°
2026-04-20 06:37 34.52993 27.77017 38033 ft 437 kts 325°
2026-04-20 06:37 34.58283 27.73369 38032 ft 438 kts 324°
2026-04-20 06:38 34.63574 27.69711 38062 ft 438 kts 325°
2026-04-20 06:38 34.68852 27.66052 38030 ft 436 kts 324°
2026-04-20 06:39 34.74122 27.62388 38035 ft 437 kts 324°
2026-04-20 06:39 34.79406 27.58714 38040 ft 437 kts 324°
2026-04-20 06:40 34.84689 27.55033 38040 ft 438 kts 324°
2026-04-20 06:40 34.89981 27.51352 38041 ft 438 kts 324°
2026-04-20 06:41 34.95272 27.47671 38020 ft 437 kts 325°
2026-04-20 06:41 35.00555 27.43992 38032 ft 438 kts 325°
2026-04-20 06:42 35.05840 27.40291 38029 ft 438 kts 325°
2026-04-20 06:42 35.11129 27.36571 38034 ft 439 kts 325°
2026-04-20 06:43 35.16426 27.32849 38042 ft 440 kts 325°
2026-04-20 06:43 35.21733 27.29123 38046 ft 440 kts 325°
2026-04-20 06:44 35.27043 27.25393 38043 ft 440 kts 325°
2026-04-20 06:44 35.32350 27.21651 38055 ft 440 kts 325°
2026-04-20 06:45 35.37657 27.17901 38030 ft 440 kts 325°
2026-04-20 06:45 35.42962 27.14135 38033 ft 440 kts 324°
2026-04-20 06:46 35.48113 27.10193 38042 ft 439 kts 322°
2026-04-20 06:46 35.53225 27.06079 38036 ft 439 kts 322°
2026-04-20 06:47 35.58354 27.01977 38039 ft 440 kts 322°
2026-04-20 06:47 35.63514 26.97913 38050 ft 441 kts 322°
2026-04-20 06:48 35.68676 26.93850 38057 ft 441 kts 322°
2026-04-20 06:48 35.73838 26.89775 38058 ft 440 kts 323°
2026-04-20 06:49 35.78984 26.85712 38038 ft 439 kts 323°
2026-04-20 06:49 35.84125 26.81638 38038 ft 439 kts 322°
2026-04-20 06:50 35.89255 26.77561 38037 ft 439 kts 322°
2026-04-20 06:50 35.94382 26.73475 38046 ft 439 kts 322°
2026-04-20 06:51 35.99513 26.69361 38051 ft 440 kts 322°
2026-04-20 06:51 36.04649 26.65238 38073 ft 441 kts 323°
2026-04-20 06:52 36.09804 26.61107 38077 ft 442 kts 323°
2026-04-20 06:52 36.14966 26.56959 38075 ft 443 kts 322°
2026-04-20 06:53 36.20126 26.52787 38073 ft 443 kts 323°
2026-04-20 06:53 36.25291 26.48613 38077 ft 444 kts 323°
2026-04-20 06:54 36.30468 26.44434 38080 ft 444 kts 323°
2026-04-20 06:54 36.35639 26.40254 38076 ft 444 kts 323°
2026-04-20 06:55 36.40814 26.36063 38083 ft 444 kts 323°
2026-04-20 06:55 36.45991 26.31863 38085 ft 445 kts 323°
2026-04-20 06:56 36.51175 26.27646 38089 ft 445 kts 323°
2026-04-20 06:56 36.56312 26.23356 38113 ft 443 kts 318°
2026-04-20 06:57 36.60780 26.18146 38096 ft 440 kts 313°
2026-04-20 06:57 36.65167 26.12838 38092 ft 440 kts 313°
2026-04-20 06:58 36.69560 26.07516 38092 ft 441 kts 313°
2026-04-20 06:58 36.73922 26.02221 38095 ft 441 kts 313°
2026-04-20 06:59 36.78314 25.96883 38096 ft 441 kts 313°
2026-04-20 06:59 36.82709 25.91535 38104 ft 441 kts 313°
2026-04-20 07:00 36.87098 25.86179 38118 ft 441 kts 313°
2026-04-20 07:00 36.91483 25.80812 38071 ft 440 kts 313°
2026-04-20 07:01 36.96170 25.76041 38080 ft 432 kts 322°
2026-04-20 07:01 37.01108 25.71674 38071 ft 437 kts 321°
2026-04-20 07:02 37.06079 25.67260 38068 ft 440 kts 321°
2026-04-20 07:02 37.11082 25.62817 38066 ft 442 kts 322°
2026-04-20 07:03 37.16101 25.58355 38071 ft 443 kts 322°
2026-04-20 07:03 37.21145 25.53874 38066 ft 445 kts 322°
2026-04-20 07:04 37.26199 25.49380 38074 ft 446 kts 322°
2026-04-20 07:04 37.31260 25.44863 38077 ft 447 kts 322°
2026-04-20 07:05 37.36322 25.40325 38079 ft 447 kts 322°
2026-04-20 07:05 37.41394 25.35780 38083 ft 448 kts 322°
2026-04-20 07:06 37.46462 25.31238 38103 ft 446 kts 322°
2026-04-20 07:06 37.51515 25.26704 38109 ft 445 kts 322°
2026-04-20 07:07 37.56552 25.22170 38102 ft 445 kts 322°
2026-04-20 07:07 37.61546 25.17665 38101 ft 444 kts 322°
2026-04-20 07:08 37.66565 25.13132 38098 ft 444 kts 322°
2026-04-20 07:08 37.71583 25.08596 38113 ft 444 kts 322°
2026-04-20 07:09 37.76590 25.04061 38014 ft 438 kts 322°
2026-04-20 07:09 37.79050 25.01830 37437 ft 431 kts 322°
2026-04-20 07:09 37.81442 24.99659 37304 ft 416 kts 322°
2026-04-20 07:09 37.83749 24.97564 37197 ft 401 kts 322°
2026-04-20 07:10 37.85981 24.95534 37108 ft 388 kts 322°
2026-04-20 07:10 37.90306 24.91584 36933 ft 386 kts 321°
2026-04-20 07:11 37.94679 24.87586 36745 ft 389 kts 322°
2026-04-20 07:11 37.99067 24.83575 36573 ft 389 kts 322°
2026-04-20 07:12 38.03461 24.79549 36134 ft 392 kts 322°
2026-04-20 07:12 38.05680 24.77518 35406 ft 395 kts 322°
2026-04-20 07:12 38.07917 24.75468 34623 ft 398 kts 322°
2026-04-20 07:12 38.10167 24.73403 33872 ft 400 kts 322°
2026-04-20 07:13 38.12426 24.71327 32915 ft 403 kts 322°
2026-04-20 07:13 38.14706 24.69233 31993 ft 406 kts 322°
2026-04-20 07:13 38.17005 24.67123 31081 ft 408 kts 322°
2026-04-20 07:13 38.19310 24.65004 30155 ft 410 kts 322°
2026-04-20 07:14 38.21631 24.62865 29156 ft 411 kts 322°
2026-04-20 07:14 38.23912 24.60761 28715 ft 401 kts 323°
2026-04-20 07:14 38.26159 24.58689 28062 ft 397 kts 323°
2026-04-20 07:14 38.28379 24.56642 27446 ft 392 kts 323°
2026-04-20 07:15 38.30576 24.54615 26842 ft 388 kts 323°
2026-04-20 07:15 38.32750 24.52606 26247 ft 384 kts 323°
2026-04-20 07:15 38.34903 24.50614 25653 ft 381 kts 323°
2026-04-20 07:15 38.37041 24.48634 25067 ft 379 kts 323°
2026-04-20 07:16 38.39165 24.46664 24488 ft 377 kts 323°
2026-04-20 07:16 38.41277 24.44704 23919 ft 375 kts 323°
2026-04-20 07:16 38.43381 24.42754 23322 ft 373 kts 323°
2026-04-20 07:16 38.45472 24.40814 22751 ft 370 kts 323°
2026-04-20 07:17 38.47542 24.38891 22249 ft 366 kts 323°
2026-04-20 07:17 38.49586 24.36987 21741 ft 362 kts 323°
2026-04-20 07:17 38.51605 24.35105 21281 ft 357 kts 323°
2026-04-20 07:17 38.53605 24.33244 20815 ft 354 kts 323°
2026-04-20 07:18 38.55581 24.31403 20366 ft 349 kts 323°
2026-04-20 07:18 38.57533 24.29583 19923 ft 346 kts 323°
2026-04-20 07:18 38.59467 24.27779 19483 ft 343 kts 323°
2026-04-20 07:18 38.61387 24.25987 19045 ft 340 kts 323°
2026-04-20 07:19 38.63291 24.24205 18605 ft 338 kts 322°
2026-04-20 07:19 38.65184 24.22433 18114 ft 336 kts 323°
2026-04-20 07:19 38.67063 24.20678 17641 ft 333 kts 323°
2026-04-20 07:19 38.68929 24.18930 17183 ft 332 kts 323°
2026-04-20 07:20 38.70785 24.17189 16707 ft 330 kts 323°
2026-04-20 07:20 38.72010 24.16039 16393 ft 329 kts 323°
2026-04-20 07:20 38.74475 24.13728 15763 ft 327 kts 323°
2026-04-20 07:20 38.75689 24.12589 15450 ft 326 kts 323°
2026-04-20 07:21 38.77519 24.10871 14978 ft 325 kts 323°
2026-04-20 07:21 38.79343 24.09155 14504 ft 325 kts 323°
2026-04-20 07:21 38.81165 24.07440 14021 ft 325 kts 323°
2026-04-20 07:21 38.83576 24.05171 13336 ft 324 kts 323°
2026-04-20 07:22 38.84799 24.04020 13003 ft 322 kts 323°
2026-04-20 07:22 38.86598 24.02326 12516 ft 320 kts 323°
2026-04-20 07:22 38.88391 24.00638 12016 ft 319 kts 323°
2026-04-20 07:22 38.90172 23.98959 11518 ft 317 kts 323°
2026-04-20 07:23 38.91947 23.97282 11015 ft 316 kts 323°
2026-04-20 07:23 38.93712 23.95612 10647 ft 311 kts 323°
2026-04-20 07:23 38.95420 23.93998 10523 ft 298 kts 323°
2026-04-20 07:23 38.97059 23.92446 10363 ft 288 kts 323°
2026-04-20 07:24 38.98657 23.90931 10105 ft 283 kts 323°
2026-04-20 07:24 39.00235 23.89433 9919 ft 281 kts 323°
2026-04-20 07:24 39.01809 23.87940 9785 ft 281 kts 323°
2026-04-20 07:24 39.03384 23.86448 9649 ft 280 kts 323°
2026-04-20 07:25 39.04901 23.85012 9515 ft 266 kts 323°
2026-04-20 07:25 39.06333 23.83656 9284 ft 248 kts 323°
2026-04-20 07:25 39.07707 23.82352 8762 ft 244 kts 323°
2026-04-20 07:25 39.09080 23.81047 8103 ft 246 kts 323°
2026-04-20 07:26 39.10461 23.79733 7479 ft 247 kts 323°
2026-04-20 07:26 39.11831 23.78430 6991 ft 242 kts 323°
2026-04-20 07:26 39.13178 23.77150 6536 ft 238 kts 323°
2026-04-20 07:26 39.14468 23.75922 6086 ft 222 kts 323°
2026-04-20 07:27 39.15666 23.74783 5679 ft 207 kts 322°
2026-04-20 07:27 39.16783 23.73719 5348 ft 194 kts 322°
2026-04-20 07:27 39.17856 23.72696 4967 ft 190 kts 322°
2026-04-20 07:27 39.18911 23.71689 4593 ft 186 kts 322°
2026-04-20 07:28 39.19937 23.70711 4247 ft 183 kts 321°
2026-04-20 07:28 39.20956 23.69738 3908 ft 182 kts 321°
2026-04-20 07:28 39.21974 23.68770 3575 ft 181 kts 321°
2026-04-20 07:28 39.22985 23.67805 3237 ft 181 kts 321°
2026-04-20 07:29 39.24006 23.66828 2895 ft 184 kts 321°
2026-04-20 07:29 39.25038 23.65840 2558 ft 183 kts 321°
2026-04-20 07:29 39.26052 23.64871 2516 ft 182 kts 321°
2026-04-20 07:29 39.27046 23.63923 2461 ft 176 kts 321°
2026-04-20 07:30 39.28026 23.62985 2377 ft 175 kts 321°
2026-04-20 07:30 39.29003 23.62049 2304 ft 175 kts 320°
2026-04-20 07:30 39.29977 23.61116 2224 ft 174 kts 320°
2026-04-20 07:30 39.30961 23.60193 2164 ft 175 kts 320°
2026-04-20 07:31 39.31616 23.58986 2021 ft 153 kts 286°
2026-04-20 07:31 39.31680 23.57703 1979 ft 138 kts 258°
2026-04-20 07:31 39.31307 23.56600 1944 ft 133 kts 232°
2026-04-20 07:31 39.30614 23.55838 1901 ft 131 kts 211°
2026-04-20 07:32 39.29804 23.55311 1877 ft 130 kts 202°
2026-04-20 07:32 39.28942 23.54943 1849 ft 130 kts 200°
2026-04-20 07:32 39.28082 23.54572 1820 ft 130 kts 201°
2026-04-20 07:32 39.27223 23.54201 1788 ft 130 kts 201°
2026-04-20 07:33 39.26364 23.53829 1755 ft 131 kts 201°
2026-04-20 07:33 39.25500 23.53477 1604 ft 131 kts 200°
2026-04-20 07:33 39.24630 23.53133 1421 ft 130 kts 199°
2026-04-20 07:33 39.23770 23.52797 1244 ft 129 kts 198°
2026-04-20 07:34 39.22900 23.52490 1025 ft 130 kts 195°
2026-04-20 07:34 39.22021 23.52197 818 ft 130 kts 194°
2026-04-20 07:34 39.21150 23.51876 650 ft 130 kts 197°
2026-04-20 07:35 39.19451 23.51138 294 ft 128 kts 197°
2026-04-20 07:35 39.18611 23.50763 94 ft 127 kts 198°
2026-04-20 07:35 39.17845 23.50426 40 ft 88 kts 199°
2026-04-20 07:35 39.17538 23.50290 37 ft 19 kts 199°
2026-04-20 07:36 39.17405 23.50234 35 ft 21 kts 198°
2026-04-20 07:36 39.17244 23.50159 23 ft 27 kts 199°
2026-04-20 07:36 39.17074 23.50076 19 ft 21 kts 214°
2026-04-20 07:36 39.17017 23.50047 16 ft 2 kts 111°
2026-04-20 07:37 39.17057 23.50078 18 ft 18 kts 18°
2026-04-20 07:37 39.17172 23.50127 22 ft 16 kts 18°
2026-04-20 07:37 39.17270 23.50170 24 ft 14 kts 19°
2026-04-20 07:37 39.17363 23.50212 31 ft 14 kts 19°
2026-04-20 07:38 39.17459 23.50254 36 ft 17 kts 19°
2026-04-20 07:38 39.17565 23.50301 38 ft 15 kts 19°
2026-04-20 07:38 39.17652 23.50340 39 ft 12 kts 19°
2026-04-20 07:38 39.17699 23.50300 40 ft 9 kts 279°
2026-04-20 07:39 39.17695 23.50229 40 ft 7 kts 286°
2026-04-20 07:39 39.17677 23.50191 40 ft 5 kts 187°
2026-04-20 07:39 39.17659 23.50208 40 ft 3 kts 107°
2026-04-20 07:39 39.17659 23.50209 40 ft 0 kts 106°